EHI
0 0 0 0 0 0 0 0 0 0 0 0 0 0 0 0 0 0 0 0 0 0 0 0 0 0 0 0 0 0 0 0 0 0 0 0 0 0
0 0 0 0 0 0 0 0 0 0 0 0 0 0 0 0 0 0 0 0 0 0 0 0 0 0 0 0 0 0 0 0 0 0 0 0 0 0
0 0 0 0 0 0 0 0 0 0 0 0 0 0 0 0 0 0 0 0 0 0 0 0 0 0 0 0 0 0 0 0 0 0 0 0 0 0
0 0 0 0 0 0 0 0 0 0 0 0 0 0 0 0 0 0 0 0 0 0 0 0 0 0 0 0 0 0 0 0 0 0 0 0 0 0
0 0 0 0 0 0 0 0 0 0 0 0 0 0 0 0 0 0 0 0 0 0 0 0 0 0 0 0 0 0 0 0 0 0 0 0 0 0
0 0 0 0 0 0 0 0 0 0 0 0 0 0 0 0 0 0 0 0 0 0 0 0 0 0 0 0 0 0 0 0 0 0 0 0 0 0
0 0 0 0 0 0 0 0 0 0 0 0 0 0 0 0 0 0 0 0 0 0 0 0 0 0 0 0 0 0 0 0 0 0 0 0 0 0
0 0 0 0 0 0 0 0 0 0 0 0 0 0 0 0 0 0 0 0 0 0 0 0 0 0 0 0 0 0 0 0 0 0 0 0 0 0
0 0 0 0 0 0 0 0 0 0 0 0 0 0 0 0 0 0 0 0 0 0 0 0 0 0 0 0 0 0 0 0 0 0 0 0 0 0
0 0 0 0 0 0 0 0 0 0 0 0 0 0 0 0 0 0 0 0 0 0 0 0 0 0 0 0 0 0 0 0 0 0 0 0 0 0
0 0 0 0 0 0 0 0 0 0 0 0 0 0 0 0 0 0 0 0 0 0 0 0 0 0 0 0 0 0 0 0 0 0 0 0 0 0
0 0 0 0 0 0 0 0 0 0 0 0 0 0 0 0 0 0 0 0 0 0 0 0 0 0 0 0 0 0 0 0 0 0 0 0 0 0
0 0 0 0 0 0 0 0 0 0 0 0 0 0 0 0 0 0 0 0 0 0 0 0 0 0 0 0 0 0 0 0 0 0 0 0 0 0
0 0 0 0 0 0 0 0 0 0 0 0 0 0 0 0 0 0 0 0 0 0 0 0 0 0 0 0 0 0 0 0 0 0 0 0 0 0
0 0 0 0 0 0 0 0 0 0 0 0 0 0 0 0 0 0 0 0 0 0 0 0 0 0 0 0 0 0 0 0 0 0 0 0 0 0
0 0 0 0 0 0 0 0 0 0 0 0 0 0 0 0 0 0 0 0 0 0 0 0 0 0 0 0 0 0 0 0 0 0 0 0 0 0
0 0 0 0 0 0 0 0 0 0 0 0 0 0 0 0 0 0 0 0 0 0 0 0 0 0 0 0 0 0 0 0 0 0 0 0 0 0
0 0 0 0 0 0 0 0 0 0 0 0 0 0 0 0 0 0 0 0 0 0 0 0 0 0 0 0 0 0 0 0 0 0 0 0 0 0
0 0 0 0 0 0 0 0 0 0 0 0 0 0 0 0 0 0 0 0 0 0 0 0 0 0 0 0 0 0 0 0 0 0 0 0 0 0
0 0 0 0 0 0 0 0 0 0 0 0 0 0 0 0 0 0 0 0 0 0 0 0 0 0 0 0 0 0 0 0 0 0 0 0 0 0
0 0 0 0 0 0 0 0 0 0 0 0 0 0 0 0 0 0 0 0 0 0 0 0 0 0 0 0 0 0 0 0 0 0 0 0 0 0
0 0 0 0 0 0 0 0 0 0 0 0 0 0 0 0 0 0 0 0 0 0 0 0 0 0 0 0 0 0 0 0 0 0 0 0 0 0
0 0 0 0 0 0 0 0 0 0 0 0 0 0 0 0 0 0 0 0 0 0 0 0 0 0 0 0 0 0 0 0 0 0 0 0 0 0
Wind_Speed
5 6 5 5 4 5 5 5 6 11 10 5 4 4 5 5 10 8 7 17 24 24 25 25 25 25 25 25 25 26 26 26 26 26 26 27 27 27
4 6 6 5 5 5 5 5 6 8 13 5 5 5 7 8 14 9 8 23 24 25 25 26 26 26 26 26 26 26 26 26 26 27 27 27 27 27
6 6 7 7 5 5 5 5 6 6 13 11 5 5 7 8 9 8 8 8 10 22 25 26 26 26 26 26 26 26 26 26 26 26 27 27 27 27
7 7 8 6 7 6 6 7 7 7 10 15 8 6 7 8 8 9 9 9 8 19 25 25 26 25 25 25 25 26 26 26 26 26 26 27 27 26
7 7 8 7 8 7 7 7 7 8 7 10 11 6 6 7 8 9 10 8 10 15 21 22 23 24 24 25 25 25 25 25 25 25 25 25 26 26
7 7 8 8 9 9 9 9 8 8 8 9 10 8 7 7 7 7 9 6 8 10 14 17 20 23 23 24 25 25 24 24 25 25 24 24 24 24
8 8 9 12 16 14 11 9 8 8 8 9 10 9 8 6 6 6 10 8 8 7 8 9 9 7 10 17 21 23 25 25 25 24 24 24 24 24
9 9 10 12 16 22 24 22 18 12 9 9 9 10 10 8 7 8 9 10 9 4 6 8 6 7 7 7 17 24 25 25 24 24 24 23 23 23
8 8 9 10 16 10 16 22 20 23 22 14 12 12 11 9 9 10 9 10 11 6 7 9 6 8 8 11 21 24 24 24 23 23 23 22 22 22
9 9 9 9 10 13 11 10 10 11 14 12 10 11 11 10 10 12 12 11 9 7 7 9 7 7 9 7 17 22 22 21 21 21 20 20 20 19
9 9 10 9 17 23 14 11 11 10 16 22 23 21 24 24 18 9 7 8 10 7 4 5 5 6 6 7 10 17 18 20 20 20 19 18 18 16
7 8 14 16 20 23 13 10 12 11 10 12 14 16 14 14 20 11 6 8 9 6 3 3 4 4 5 4 4 5 8 14 18 19 18 18 17 8
6 6 7 19 23 24 21 12 16 17 10 9 9 8 7 7 7 7 6 6 8 7 4 3 4 4 5 6 5 5 5 5 6 9 13 15 15 10
7 6 8 20 23 25 19 19 25 22 8 7 7 6 6 5 5 6 6 6 7 8 7 5 5 5 6 7 6 4 4 5 5 5 5 9 11 12
9 16 21 24 23 16 19 25 20 9 6 7 7 6 5 5 5 4 5 6 7 7 7 7 7 6 6 7 6 5 5 5 4 4 4 4 4 4
10 14 22 22 18 17 17 13 7 7 7 6 6 5 4 4 4 4 4 4 5 6 6 7 7 7 7 7 7 7 5 5 4 4 4 4 4 3
11 7 6 7 6 7 7 7 6 5 6 4 4 4 4 4 5 4 4 4 4 5 5 4 5 5 7 7 7 7 6 5 5 4 4 4 3 3
15 7 7 7 8 7 7 6 5 5 4 4 4 4 4 5 5 4 4 4 5 5 5 4 3 3 4 5 7 7 5 5 4 3 3 3 3 3
10 7 7 7 7 7 6 6 6 5 4 4 4 4 4 5 5 5 5 5 5 5 5 4 3 3 5 5 4 4 4 4 3 3 2 2 3 3
6 7 7 7 6 6 6 6 5 5 4 4 4 4 4 5 5 5 5 5 5 5 5 4 3 4 4 5 4 4 6 4 3 3 2 2 3 4
6 7 7 7 6 6 6 6 5 5 5 4 4 4 4 5 5 5 5 9 7 5 5 5 4 7 3 2 3 4 3 5 4 3 2 2 2 2
7 7 6 6 6 6 6 5 5 5 5 5 5 5 4 5 6 6 6 5 5 5 5 4 3 3 2 3 4 4 3 3 4 6 5 4 2 1
7 7 7 7 6 5 5 6 7 6 5 5 5 5 5 5 5 5 5 5 5 5 4 4 3 3 3 3 3 3 3 3 2 2 2 3 4 5
Wind_Direction
237 241 243 245 244 246 247 245 268 289 288 267 270 279 289 289 291 293 286 296 299 298 298 298 297 296 296 295 294 293 292 290 289 287 285 284 283 281
237 244 250 250 248 246 245 246 243 263 280 271 265 274 282 289 293 295 293 299 299 298 297 296 295 295 295 295 294 293 291 290 288 286 285 283 281 280
245 247 251 252 253 251 248 248 249 254 274 282 265 272 276 281 288 283 284 282 284 291 293 292 292 293 293 293 293 292 291 290 289 287 285 284 282 280
249 251 256 260 258 254 252 252 253 252 266 282 283 276 272 277 278 277 285 285 281 289 291 291 290 291 291 293 294 293 291 290 289 288 286 284 282 282
247 251 257 260 263 260 258 258 258 262 260 274 282 277 275 277 282 282 280 280 282 286 288 289 290 291 292 294 295 294 293 292 290 288 285 283 282 281
251 254 257 257 261 262 263 260 261 263 262 269 277 280 276 272 275 282 285 272 277 284 285 287 287 289 291 293 294 294 293 292 290 288 286 285 282 280
257 258 260 264 266 269 271 264 259 261 264 268 274 279 277 277 272 273 283 284 276 271 275 276 280 277 282 286 290 290 289 289 289 287 286 285 281 278
260 262 266 271 273 277 279 279 275 270 269 268 274 275 276 272 274 275 281 286 285 256 262 273 271 272 272 268 281 286 289 290 290 289 287 286 284 279
259 264 272 274 281 274 278 281 281 279 277 275 274 273 275 273 273 274 270 272 278 275 279 281 269 271 273 280 287 289 290 291 292 292 290 287 285 281
257 260 266 270 272 280 274 271 266 270 274 275 267 268 270 269 262 268 272 275 272 266 262 276 275 271 278 277 284 287 292 295 297 298 296 292 290 287
259 261 269 270 279 287 286 280 278 274 278 278 276 277 278 282 283 281 278 282 284 276 248 257 272 280 277 272 278 286 294 299 299 299 298 297 295 291
264 262 272 279 285 289 286 281 281 279 275 276 276 280 281 281 284 279 270 276 284 284 250 249 271 292 288 268 269 285 293 296 300 300 299 298 298 296
271 268 267 285 289 290 289 282 281 285 277 272 270 266 264 260 261 258 249 252 269 272 262 262 274 273 271 287 286 278 279 287 296 297 299 299 299 299
280 276 277 290 291 292 292 287 289 292 284 277 273 266 263 262 262 259 254 249 252 261 264 256 266 270 277 282 284 285 287 285 284 287 288 297 299 301
282 287 292 295 296 294 291 291 292 287 277 275 272 267 259 259 267 271 267 264 266 264 264 256 258 264 264 273 279 282 294 291 279 282 289 293 293 297
288 288 292 293 292 290 291 290 279 266 270 267 267 265 265 269 270 267 270 274 278 282 269 257 251 255 266 269 273 280 278 280 294 294 290 290 291 287
291 285 282 285 280 278 277 275 268 269 274 264 268 274 276 277 276 267 261 269 272 280 289 280 258 252 254 263 272 272 274 275 274 283 290 288 287 292
300 291 289 287 286 286 286 283 275 268 262 262 265 267 277 279 281 278 268 264 270 276 279 279 280 286 285 266 248 264 271 276 283 286 284 283 290 300
297 286 283 283 283 283 280 278 276 269 261 259 261 267 273 275 276 278 275 268 269 273 275 273 266 265 281 288 282 263 279 285 287 286 279 273 278 289
276 276 278 278 277 279 279 275 274 270 260 255 256 261 265 270 273 274 272 267 271 276 281 271 256 253 260 274 283 287 283 278 280 284 284 283 282 292
279 276 275 277 277 276 276 274 272 268 262 256 253 254 257 262 267 270 270 274 276 273 276 274 262 274 269 267 275 278 285 283 278 269 280 291 294 307
280 279 277 275 276 273 272 271 272 269 262 254 253 253 251 256 263 267 266 266 265 266 270 272 273 275 256 256 269 277 288 301 295 286 274 259 248 265
277 279 278 277 273 271 271 268 266 266 260 253 251 253 252 255 259 261 261 261 262 266 270 272 270 263 256 250 259 269 278 287 292 307 307 291 272 260